Battle Mountain, Nevada, United States (89820)
Lat: 40.64N, Lon: 116.93W
Wx Zone: NVZ036
Local Info
Past Weather Observations for Tuesday, May 24, 2016

NOTE: This archive is for the closest National Weather Service station to Battle Mountain. Information may differ from the station used for current weather conditions.

Click here for Long-term Archive

Time Weather Temperature Dewpoint Humidity Pressure Winds Precip Visibility
23:56
Mostly Cloudy
46°F / 8°C 41°F / 5°C 82% 30.01 in
(1016 mb)
E 6.9 mph
(E 11 kph)
- 10SM
22:56
Overcast
48°F / 9°C 39°F / 4°C 71% 30.01 in
(1016 mb)
SSE 4.6 mph
(SSE 7 kph)
- 10SM
21:56
Mostly Cloudy
48°F / 9°C 39°F / 4°C 71% 30.01 in
(1016 mb)
E 4.6 mph
(E 7 kph)
- 10SM
20:56
Overcast
52°F / 11°C 39°F / 4°C 62% 29.98 in
(1015 mb)
SSE 10.4 mph
(SSE 17 kph)
- 10SM
19:56
Overcast
54°F / 12°C 39°F / 4°C 58% 29.95 in
(1014 mb)
SSE 12.7 mph
(SSE 20 kph)
- 10SM
18:56
Partly Cloudy
55°F / 13°C 39°F / 4°C 55% 29.95 in
(1014 mb)
Variable 3.5 mph
(Variable 6 kph)
- 10SM
17:56
Mostly Cloudy
59°F / 15°C 37°F / 3°C 45% 29.92 in
(1013 mb)
NE 6.9 mph
(NE 11 kph)
- 10SM
16:56
Overcast
61°F / 16°C 37°F / 3°C 42% 29.92 in
(1013 mb)
N 18.4 mph
(N 30 kph)
0.00 in
(0.00 mm)
10SM
16:25
Overcast
63°F / 17°C 34°F / 1°C 34% 29.89 in
(1012 mb)
Variable 6.9 mph
(Variable 11 kph)
0.00 in
(0.00 mm)
10SM
16:10
Overcast
Thunder Storms
63°F / 17°C 34°F / 1°C 34% 29.89 in
(1012 mb)
NNE 11.5 mph
(NNE 19 kph)
0.00 in
(0.00 mm)
10SM
15:56
Overcast
63°F / 17°C 36°F / 2°C 37% 29.89 in
(1012 mb)
N 11.5 mph
(N 19 kph)
0.00 in
(0.00 mm)
10SM
14:56
Overcast
Light Rain
61°F / 16°C 37°F / 3°C 42% 29.89 in
(1012 mb)
NE 13.8 mph
(NE 22 kph)
0.00 in
(0.00 mm)
10SM
13:56
Clear
64°F / 18°C 30°F / -1°C 28% 29.86 in
(1011 mb)
W 4.6 mph
(W 7 kph)
0.00 in
(0.00 mm)
10SM
12:56
Overcast
Light Rain
61°F / 16°C 32°F / 0°C 34% 29.89 in
(1012 mb)
ENE 4.6 mph
(ENE 7 kph)
0.00 in
(0.00 mm)
10SM
11:56
Clear
63°F / 17°C 32°F / 0°C 32% 29.89 in
(1012 mb)
SE 6.9 mph
(SE 11 kph)
- 10SM
10:56
Mostly Cloudy
61°F / 16°C 32°F / 0°C 34% 29.86 in
(1011 mb)
NNE 8.1 mph
(NNE 13 kph)
0.00 in
(0.00 mm)
10SM
09:56
Mostly Cloudy
64°F / 18°C 36°F / 2°C 34% 29.86 in
(1011 mb)
NW 9.2 mph
(NW 15 kph)
- 10SM
08:56
Partly Cloudy
61°F / 16°C 36°F / 2°C 39% 29.89 in
(1012 mb)
Calm - 10SM
07:56
Overcast
55°F / 13°C 36°F / 2°C 47% 29.89 in
(1012 mb)
NW 9.2 mph
(NW 15 kph)
- 10SM
06:56
Overcast
54°F / 12°C 34°F / 1°C 47% 29.86 in
(1011 mb)
NW 10.4 mph
(NW 17 kph)
- 10SM
05:56
Overcast
46°F / 8°C 36°F / 2°C 66% 29.86 in
(1011 mb)
Variable 3.5 mph
(Variable 6 kph)
- 10SM
04:56
Overcast
48°F / 9°C 34°F / 1°C 58% 29.83 in
(1010 mb)
NW 6.9 mph
(NW 11 kph)
- 10SM
03:56
Overcast
43°F / 6°C 34°F / 1°C 71% 29.83 in
(1010 mb)
Calm - 10SM
02:56
Overcast
46°F / 8°C 34°F / 1°C 62% 29.83 in
(1010 mb)
NNW 5.8 mph
(NNW 9 kph)
- 10SM
01:56
Overcast
46°F / 8°C 34°F / 1°C 62% 29.83 in
(1010 mb)
N 3.5 mph
(N 6 kph)
- 10SM
00:56
Overcast
46°F / 8°C 32°F / 0°C 57% 29.83 in
(1010 mb)
NW 6.9 mph
(NW 11 kph)
- 10SM
Time Weather Temperature Dewpoint Humidity Pressure Winds Precip Visibility


Weather for websites

WeatherForYou.com, LLC is not responsible for any damages or problems caused by this service. Current weather conditions are obtained from the closest station including government and personal stations which may have varying degrees of accuracy. Weather forecasts are derived from the NOAA NDFD. Like all things, this site belongs to Jesus Christ... He just trusts us to maintain it. If you have any questions or comments email webmaster@weatherforyou.com

Copyright © 2016, WeatherForYou.com LLC. All rights reserved.